This is the latest recevied weather packets stored in our database for station/object K0QED. If no packets are shown the sender has not sent any weather packets the latest 10 day(s).
| Time | Temp. | Humidity | Pressure | Rain* | Wind** | Luminosity | Snow |
|---|---|---|---|---|---|---|---|
| 1777676581 | 9.44° C | 39% | 1022.2 hPa | 0 mm | - | 106 W/m² | - |
| 1777676278 | 8.89° C | 41% | 1022.1 hPa | 0 mm | - | 403 W/m² | - |
| 1777675976 | 8.33° C | 43% | 1022.2 hPa | 0 mm | - | 254 W/m² | - |
| 1777675671 | 8.33° C | 45% | 1022.1 hPa | 0 mm | - | 130 W/m² | - |
| 1777675369 | 8.33° C | 45% | 1022.1 hPa | 0 mm | - | 127 W/m² | - |
| 1777675065 | 8.33° C | 50% | 1022 hPa | 0 mm | - | 109 W/m² | - |
| 1777674762 | 8.33° C | 49% | 1022.2 hPa | 0 mm | - | 127 W/m² | - |
| 1777674458 | 7.78° C | 43% | 1022 hPa | 0 mm | - | 148 W/m² | - |
| 1777674156 | 8.33° C | 47% | 1022.1 hPa | 0 mm | - | 132 W/m² | - |
| 1777673852 | 7.78° C | 49% | 1021.9 hPa | 0 mm | - | 164 W/m² | - |
| 1777673549 | 8.33° C | 48% | 1022.1 hPa | 0 mm | - | 129 W/m² | - |
| 1777673246 | 8.33° C | 49% | 1022.2 hPa | 0 mm | - | 140 W/m² | - |
| 1777672944 | 8.33° C | 48% | 1022 hPa | 0 mm | - | 175 W/m² | - |
| 1777672640 | 8.33° C | 49% | 1022.4 hPa | 0 mm | - | 115 W/m² | - |
| 1777672330 | 8.33° C | 53% | 1022.2 hPa | 0 mm | - | 98 W/m² | - |
| 1777672025 | 8.89° C | 49% | 1022.4 hPa | 0 mm | - | 102 W/m² | - |
| 1777671721 | 10° C | 45% | 1022.4 hPa | 0 mm | - | 161 W/m² | - |
| 1777671418 | 10.56° C | 47% | 1022.5 hPa | 0 mm | - | 683 W/m² | - |
| 1777671114 | 10° C | 42% | 1022.6 hPa | 0 mm | - | 698 W/m² | - |
| 1777670810 | 10° C | 41% | 1022 hPa | 0 mm | - | 586 W/m² | - |
| 1777670507 | 11.11° C | 41% | 1022.4 hPa | 0 mm | - | 762 W/m² | - |
| 1777670204 | 10° C | 46% | 1022.7 hPa | 0 mm | - | 755 W/m² | - |
| 1777669902 | 8.89° C | 46% | 1022.5 hPa | 0 mm | - | 774 W/m² | - |
| 1777669598 | 8.89° C | 47% | 1022.5 hPa | 0 mm | - | 231 W/m² | - |
| 1777669295 | 8.89° C | 51% | 1022.6 hPa | 0 mm | - | 788 W/m² | - |
* Rain latest hour (hover to see other rain measurements)
** Current wind speed in m/s (hover to see current wind gust speed)